#timestamp,LO_Frequency,Hit,StdDev 
1506585615.9,286047000.7,N
1506585635.7,286046998.4,N
1506585655.6,286046998.5,N
1506585675.4,286046999.9,N
1506585695.2,286047002.0,N
1506585715.1,286046999.9,N
1506585716.0,286046999.9,N
1506585735.8,286047000.6,N
1506585755.6,286047000.6,N
1506585775.4,286047000.0,N
1506585795.3,286046998.5,N
1506585815.1,286046999.9,N
1506585835.8,286046999.7,N
1506585855.7,286046996.9,N
1506585875.5,286046996.9,N
1506585895.3,286046996.7,N
1506585915.2,286046999.5,N
1506585935.9,286046996.9,N
1506585955.7,286047000.5,N
1506585975.6,286046999.3,N
1506585995.4,286046999.5,N
1506586015.2,286046999.5,N
1506586035.1,286046996.6,N
1506586036.0,286046996.6,N
1506586055.8,286046995.0,Y
1506586075.6,286046995.2,P
1506586095.5,286046997.4,N
1506586115.3,286046996.5,N
1506586135.1,286046998.3,N
1506586155.9,286046999.3,N
1506586175.7,286046994.9,Y
1506586195.5,286047001.0,P
1506586215.4,286046998.4,N
1506586235.2,286046998.2,N
1506586255.0,286047002.8,N
1506586255.9,286047002.8,N
1506586275.8,286047002.7,N
1506586295.6,286046999.0,N
1506586315.4,286047000.7,N
1506586335.2,286046997.7,N
1506586355.1,286046993.6,Y
1506586356.0,286046993.6,P
1506586375.8,286046994.5,N
1506586395.6,286046995.1,N
1506586415.5,286046997.8,N
1506586435.3,286046997.0,N
1506586455.1,286046999.5,N
1506586475.9,286046999.5,N
1506586495.7,286046995.3,N
1506586515.5,286046994.8,N
1506586535.4,286046990.5,Y
1506586555.2,286046994.9,P
1506586575.0,286046994.9,P
1506586575.9,286046994.9,P
1506586595.8,286046996.6,Y
1506586615.6,286047002.5,P
1506586635.4,286047002.2,N
1506586655.3,286047001.3,N
1506586675.1,286047000.2,N
1506586695.8,286047000.4,N
1506586715.7,286047002.6,N
1506586735.5,286047003.7,N
1506586755.3,286047001.6,N
1506586775.2,286047001.9,N
1506586795.9,286047003.4,N
1506586815.7,286047003.4,N
1506586835.6,286047005.3,N
1506586855.4,286047004.6,N
1506586875.2,286047002.9,N
1506586895.0,286047000.5,N
1506586895.9,286047000.5,N
1506586915.8,286047002.6,N
1506586935.6,286046999.9,N
1506586955.4,286047002.2,N
1506586975.3,286047002.7,N
1506586995.1,286047000.4,N
1506587015.8,286047000.8,N
1506587035.7,286046998.2,N
1506587055.5,286046999.0,N
1506587075.3,286047002.7,N
1506587095.2,286047004.2,N
1506587115.9,286047004.2,N
1506587135.7,286047004.0,N
1506587155.5,286047001.8,N
1506587175.4,286047002.2,N
1506587195.2,286046999.9,N
1506587215.0,286047002.1,N
1506587215.9,286047002.1,N
1506587235.8,286047000.2,N
1506587255.6,286046996.5,N
1506587275.4,286046998.2,N
1506587295.3,286046998.9,N
1506587315.1,286046998.7,N
1506587335.8,286047000.6,N
1506587355.7,286047000.8,N
1506587375.5,286047001.1,N
1506587395.3,286047000.8,N
1506587415.2,286046998.7,N
1506587435.9,286046999.5,N
1506587455.7,286046996.4,N
1506587475.6,286046996.0,N
1506587495.4,286046991.7,Y
1506587515.2,286046992.6,P
1506587535.1,286046995.6,N
1506587536.0,286046995.6,N
1506587555.8,286046996.4,N
1506587575.6,286046995.3,N
1506587595.5,286046995.9,N
1506587615.3,286046995.3,N
1506587635.1,286046996.3,N
1506587655.8,286046995.2,N
1506587675.7,286046993.8,Y
1506587695.5,286046998.1,P
1506587715.4,286046998.4,N
1506587735.2,286046998.0,N
1506587755.0,286046994.5,Y
1506587755.9,286046994.5,P
1506587775.8,286046997.4,N
1506587795.6,286046996.7,N
1506587815.4,286046998.7,N
1506587835.3,286046998.6,N
1506587855.1,286047001.1,N
1506587856.0,286047001.1,N
1506587875.8,286046999.3,N
1506587895.6,286046998.8,N
1506587915.5,286046994.9,N
1506587935.3,286046993.8,Y
1506587955.1,286046996.7,P
1506587975.9,286046998.9,N
1506587995.7,286047001.2,N
1506588015.5,286046996.9,N
1506588035.4,286046999.0,N
1506588055.2,286046999.6,N
1506588075.0,286046999.3,N
1506588075.9,286046999.3,N
1506588095.8,286046997.4,N
1506588115.6,286046997.5,N
1506588135.4,286046999.4,N
1506588155.3,286046998.0,N
1506588175.1,286046993.3,Y
1506588195.8,286046999.5,P
1506588215.7,286047000.9,N
1506588235.5,286046998.5,N
1506588255.3,286047000.7,N
1506588275.2,286047000.9,N
1506588295.9,286046999.1,N
1506588315.7,286046998.6,N
1506588335.6,286047000.4,N
1506588355.4,286047000.7,N
1506588375.2,286046999.2,N
1506588395.0,286046998.6,N
1506588396.0,286046998.6,N
1506588415.8,286046998.9,N
1506588435.6,286046999.5,N
1506588455.4,286046997.6,N
1506588475.3,286046995.6,Y
1506588495.1,286046997.9,P
1506588515.8,286046995.4,P
1506588535.7,286046995.6,N
1506588555.5,286046993.8,Y
1506588575.3,286046997.0,P
1506588595.2,286046997.1,P
1506588615.0,286046999.6,P
1506588615.9,286046999.6,N
1506588635.7,286046997.4,N
1506588655.6,286046997.3,N
1506588675.4,286046995.4,Y
1506588695.2,286046999.5,P
1506588715.1,286046999.4,N
1506588716.0,286046999.4,N
1506588735.8,286047000.5,N
1506588755.6,286047000.6,N
1506588775.5,286047000.8,N
1506588795.3,286046998.5,N
1506588815.1,286046999.3,N
1506588835.9,286046994.9,Y
1506588855.7,286046995.2,P
1506588875.5,286046996.4,N
1506588895.4,286046997.9,N
1506588915.2,286046998.0,N
1506588935.0,286046996.1,N
1506588935.9,286046996.1,N
1506588955.8,286046992.2,Y
1506588975.6,286046993.7,P
1506588995.4,286046992.6,P
1506589015.3,286046989.1,P
1506589035.1,286046988.7,Y
1506589036.0,286046988.7,P
1506589055.8,286046995.3,N
1506589075.7,286046997.6,N
1506589095.5,286046993.6,N
1506589115.3,286046995.7,N
1506589135.2,286046996.8,N
1506589155.9,286046994.8,N
1506589175.7,286046991.8,Y
1506589195.6,286046999.6,P
